Location: Makanda
(37.6176°N, 89.2090°W)
Time: 17:21:00
(UTC+00:00)

Meteor 2-8 Rocket - Pass Details

Date: 23 September 2019
Orbit: 937 x 957 km, 82.5° (Epoch: 22 October)

Event Time Altitude Azimuth Distance (km) Brightness Sun altitude
Rises 11:10:12 0° 349° (NNW) 3,637 7.4 -7.8°
Reaches altitude 10° 11:12:43 10° 346° (NNW) 2,689 6.7 -7.3°
Maximum altitude 11:18:47 64° 267° (W) 1,054 4.5 -6.1°
Drops below altitude 10° 11:24:50 10° 187° (S) 2,678 6.7 -4.9°
Sets 11:27:20 0° 184° (S) 3,619 7.4 -4.4°
